Regional Weather Roundup
Issued by NWS

Home | Current Version | Previous Version | Graphics & Text | Print | Product List | Glossary On
Versions: 1 2 3 4 5 6 7 8 9 10 11 12 13 14 15 16 17 18 19 20 21 22 23 24 25 26 27
000
ASUS45 KSLC 230510
RWRUT

UTAH REGIONAL WEATHER ROUNDUP
NATIONAL WEATHER SERVICE SALT LAKE CITY UT
1000 PM MST WED FEB 22 2017

UTZ001>011-023>025-230600-

NORTHERN UTAH

CITY           SKY/WX    TMP DP  RH WIND       PRES   REMARKS
BRIGHAM CITY     N/A     32  28  85 SE7       29.79F WCI  26
HILL AFB       PTCLDY    32  23  69 NE5       29.78F WCI  27
LOGAN          LGT SNOW  31  29  92 E6        29.78F VSB 1   WCI  25
OGDEN          CLOUDY    32  25  75 CALM      29.78F
SALT LAKE CITY LGT SNOW  33  28  81 NE5       29.80S FOG     WCI  29
TOOELE VALLEY  CLOUDY    34  32  93 SW3       29.81S
WENDOVER       PTCLDY    32  16  51 W8        29.80S WCI  25
HEBER CITY     LGT SNOW  27  25  93 E9        29.73F WCI  17
WEST JORDAN    CLOUDY    33  33 100 E3        29.81S

$$

UTZ011>015-024>027-230600-

CENTRAL/NORTHEAST UTAH

CITY           SKY/WX    TMP DP  RH WIND       PRES   REMARKS
PROVO AIRPORT  MIX PCPN  30  29  96 E7        29.81F WCI  23
MOAB/CANYONLAN MOCLDY    53  18  25 W15       29.53F
DELTA          CLOUDY    28  28 100 S6        29.83S WCI  22
PRICE          CLOUDY    31  22  69 N18G24    29.65R WCI  19
RICHFIELD      CLOUDY    28  28 100 CALM      29.84R FOG
ROOSEVELT      LGT SNOW  32  32 100 SW3       29.70R
VERNAL         LGT SNOW  31  30  96 N9        29.66F FOG     WCI  23

$$

UTZ013>016-019>022-027-230600-

SOUTHERN UTAH

CITY           SKY/WX    TMP DP  RH WIND       PRES   REMARKS
BRYCE CANYON   SNOW      24  20  84 W22G32    29.71S VSB 1/2 WCI   9
CEDAR CITY     LGT SNOW  28  25  88 N6        29.84S FOG     WCI  22
MILFORD        LGT SNOW  28  26  92 NE18      29.84F VSB 3/4 WCI  15
ST GEORGE      LGT RAIN  42  30  62 W12       29.87R
HANKSVILLE     CLOUDY    43  25  49 NW21G29   29.63R
KANAB          CLEAR     43  27  52 W15       29.78R
BLANDING       CLEAR     45  26  47 S14G20    29.73F

$$

REGIONAL REPORTS     COLORADO/ARIZONA

CITY           SKY/WX    TMP DP  RH WIND       PRES   REMARKS
CRAIG, CO      CLOUDY    30  26  85 CALM      29.62F
GRAND JUNCTION CLEAR     43  22  43 SE9       29.54F
RIFLE, CO      CLOUDY    52  14  22 SW9G21    29.55F
MONTROSE, CO   CLEAR     51  20  29 S15G25    29.64F
CORTEZ, CO     CLOUDY    45  18  34 S16       29.73F
COLORADO CITY  MOCLDY    36  28  75 NW20G32   29.82R WCI  25
PAGE, AZ       PTCLDY    50  23  34 W18G31    29.67R
GRAND CANYON   PTCLDY    36  27  69 SW14      29.80F WCI  27
KINGMAN, AZ    MOCLDY    46   9  22 SW15      29.87R
FLAGSTAFF, AZ  PTCLDY    39  30  70 SW23G35   29.81F WCI  28

$$

REGIONAL REPORTS    NEVADA/IDAHO/WYOMING

CITY           SKY/WX    TMP DP  RH WIND       PRES   REMARKS
LAS VEGAS, NV  MOCLDY    50  25  37 NW13      29.83S
ELY, NY        PTCLDY    11   1  64 W7        29.82F WCI   0
ELKO, NV       MOCLDY    28  17  63 SW9       29.82S WCI  19
POCATELLO, ID  LGT SNOW  29  28  96 SW6       29.75F VSB 1   WCI  23
BURLEY, ID     MOCLDY    31  26  82 SW3       29.74F
FORT BRIDGER,  LGT SNOW  25  25 100 E5        29.72S WCI  20
EVANSTON, WY   LGT SNOW  22  18  85 W18       29.69S VSB 1   WCI   7
ROCK SPRINGS,  LGT SNOW  25  22  88 N12       29.67F VSB 3/4 WCI  14

$$




USA.gov is the U.S. government's official web portal to all federal, state and local government web resources and services.